Regional Weather Roundup
Issued by NWS Sterling, VA

Home | Current Version | Previous Version | Graphics & Text | Print | Product List | Glossary On
Versions: 1 2 3 4 5 6 7 8 9 10 11 12 13 14 15 16 17 18 19 20 21 22 23 24 25 26 27 28 29 30 31 32 33 34 35 36 37 38 39 40 41 42 43 44 45 46 47 48 49 50
000
ASUS41 KLWX 040810
RWRLWX

REGIONAL WEATHER ROUNDUP
NATIONAL WEATHER SERVICE BALTIMORE MD/WASHINGTON DC
400 AM EDT TUE AUG 04 2015

Note: "FAIR" indicates few or no clouds below 12,000 feet
with no significant weather and/or obstructions to visibility.
 TC=TEMPERATURE CELSIUS

 * =Non NWS site. Station does not report precipitation (e.g. rain,
    snow, etc.), thunder, or fog.

DCZ001-MDZ009-015-VAZ040>042-051-053>054-040900-
WASHINGTON METRO

CITY           SKY/WX    TMP DP  RH WIND       PRES   REMARKS
WASHINGTON NAT MOCLDY    79  67  66 SW3       29.86R
DULLES         MOCLDY    73  64  73 SW7       29.87R
ANDREWS AFB    FAIR      75  68  79 SW8       29.86R
FT BELVOIR     PTCLDY    76  68  74 S5        29.87R
COLLEGE PARK*  PTCLDY    72  68  88 CALM      29.85R
LEESBURG*      MOCLDY    75  68  78 SW3       29.88R
MANASSAS*      MOCLDY    68  66  94 CALM      29.87R
GAITHERSBURG*  CLOUDY    70  63  78 CALM      29.90S

$$

MDZ006>007-011-014-040900-
BALTIMORE METRO

CITY           SKY/WX    TMP DP  RH WIND       PRES   REMARKS
BWI AIRPORT    CLOUDY    74  67  78 SW3       29.85R
MD SCIENCE CTR   N/A     79  63  57 MISG      29.85R
MARTIN STATE   PTCLDY    77  70  78 S6        29.86R
ANNAPOLIS      PTCLDY    77  67  71 W6        29.85R
FORT MEADE*    MOCLDY    66  64  94 CALM      29.88R

$$

MDZ012-015-019>023-040900-
MARYLAND EASTERN SHORE

CITY           SKY/WX    TMP DP  RH WIND       PRES   REMARKS
OCEAN CITY     CLEAR     79  74  84 SW12      29.88S
SALISBURY      CLEAR     77  75  93 S8        29.88R
BAY BRIDGE AP*   N/A     79  70  73 SW7       29.85R
CAMBRIDGE*     CLEAR     79  72  78 S3        29.86R
EASTON*        CLEAR     80  76  89 SW6       29.90R

$$

MDZ017>025-040900-
SOUTHERN MARYLAND

CITY           SKY/WX    TMP DP  RH WIND       PRES   REMARKS
PATUXENT RIVER PTCLDY    78  71  79 SW10      29.86R
ST INIGOES     PTCLDY    79  73  82 SW12G23   29.86R
LEONARDTOWN*   PTCLDY    77  70  78 SW6       29.89R

$$

MDZ003>005-040900-
NORTH CENTRAL MARYLAND

CITY           SKY/WX    TMP DP  RH WIND       PRES   REMARKS
FREDERICK*     CLOUDY    73  66  78 N5        29.89R
HAGERSTOWN APT CLOUDY    68  64  87 S3        29.89R
WESTMINSTER*   CLOUDY    72  63  73 NW9       29.90R

$$

MDZ501>502-040900-
WESTERN MARYLAND

CITY           SKY/WX    TMP DP  RH WIND       PRES   REMARKS
OAKLAND*       CLOUDY    64 N/A N/A W6        29.99R
CUMBERLAND*    CLOUDY    70  66  88 E3        29.93S

$$

VAZ025>031-040900-
SHENANDOAH VALLEY

CITY           SKY/WX    TMP DP  RH WIND       PRES   REMARKS
WINCHESTER*    TSTM      72  64  78 NW16G40   29.90R
FRONT ROYAL*   FAIR      72  63  73 CALM      29.88R
LURAY*         FAIR      73  63  68 CALM      29.90R
NEW MARKET*    FAIR      67  63  87 CALM      29.90R
STAUNTON*      MOCLDY    71  63  76 N3        29.94R
WAYNESBORO*    FAIR      76  61  59 SW7       29.94R

$$

WVZ021-048>050-054>055-040900-
EASTERN WEST VIRGINIA PANHANDLE

CITY           SKY/WX    TMP DP  RH WIND       PRES   REMARKS
MARTINSBURG    RAIN      70  66  87 W16       29.93R FOG
PETERSBURG*    MOCLDY    68  65  90 CALM      29.93R

$$

VAZ036>039-050-040900-
CENTRAL FOOTHILLS

CITY           SKY/WX    TMP DP  RH WIND       PRES   REMARKS
CHARLOTTESVILL MOCLDY    72  65  78 S8        29.89R
CULPEPER*      PTCLDY    68  65  90 CALM      29.88R
ORANGE*        MOCLDY    72  66  83 CALM      29.91R
GORDONSVILLE*  FAIR      70  66  88 W6        29.88F
WARRENTON*     FAIR      72  68  86 CALM      29.88R

$$

VAZ055>057-040900-
NORTH AND CENTRAL PIEDMONT

CITY           SKY/WX    TMP DP  RH WIND       PRES   REMARKS
FREDERICKSBRG* CLOUDY    78  70  77 SW7       29.86S
STAFFORD*      MOCLDY    74  67  79 CALM      29.91R

$$

NCZ024-NYZ072-PAZ021-071-VAZ022-071-040900-
OTHER REGIONAL OBSERVATIONS

CITY           SKY/WX    TMP DP  RH WIND       PRES   REMARKS
NEW YORK CITY  LGT RAIN  73  66  78 W17G32    29.89R
PHILADELPHIA   CLOUDY    77  63  61 N13       29.86R
PITTSBURGH     CLEAR     66  63  90 SW3       29.89S
ROANOKE        CLOUDY    76  60  57 W6        29.97R
RICHMOND       MOCLDY    76  70  82 S12       29.90R
RALEIGH        PTCLDY    75  71  87 SW6       29.96S

$$

ANZ530>537-040900-
MARINE OBSERVATIONS

STATION/POSITION TIME  TEMP    WIND        PRES
                       AIR SEA DIR/SP/G
                 (UTC) (F)     (DEG/KT/KT) (MB)
THOMAS PT LIGHT  0800   78 81  230/ 14     1011.4
BALT KEY BRIDGE  0700   78     220/  5/  6 1009.9R
COVE POINT       0700   80     250/ 12/ 17 1011.3F
LEWISETTA        0700   79 84  230/ 11/ 14 1010.9F
SOLOMONS ISLAND  0700      83                N/A
PINEY POINT      0700          240/ 13/ 14   N/A

$$



USA.gov is the U.S. government's official web portal to all federal, state and local government web resources and services.